[[{"header":{"parameterUnit":"m.s-1","parameterCategory":1,"la1":30.2991,"la2":30.254,"lo1":-89.0895,"lo2":-89.0444,"dx":0.0017,"dy":0.0017,"nx":28,"ny":28,"refTime":"2023-01-02T15:00:00:Z","depth":0,"parameterNumber":2,"parameterNumberName":"U-component_of_WINDS"},"data":[0,0,0,0,0,0,0,0,0,0,0,0,0,0,0,0,0,0,0,0,0,0,0,0,0,0,0,0,0,0,0,0,0,0,0,0,0,0,0,0,0,0,0,0,0,0,0,0,0,0,0,0,0,0,0,0,0,0,2.1385,2.1385,0,2.1383,2.1383,2.1383,2.1333,2.1332,2.1331,2.133,2.1333,2.1334,2.1335,0,0,0,0,0,0,0,0,0,0,0,0,0,2.1348,2.1349,2.1385,2.1385,2.1385,2.1383,2.1383,2.1383,2.1334,2.1332,2.133,2.1329,2.1332,2.1334,2.1336,0,0,0,0,0,0,0,0,0,0,0,0,0,2.1357,2.1349,2.1385,2.136,2.1357,2.1383,2.1383,2.1383,2.1334,2.1332,2.133,2.1328,2.1332,2.1334,2.1336,2.1387,0,0,2.1342,2.1343,0,0,0,0,0,0,0,0,2.1357,2.1359,2.1363,2.1361,2.1359,2.1356,2.1372,2.1385,2.1334,2.1343,2.133,2.1327,2.1343,2.1344,2.1348,2.1387,2.1388,2.1342,2.1343,2.1344,2.1345,0,0,0,0,0,0,0,2.1356,2.1358,2.1384,2.1364,2.1361,2.135,2.1349,2.1374,2.1354,2.1342,2.1338,2.1339,2.1341,2.1346,2.1348,2.1388,2.1342,2.1344,2.1345,2.1346,2.1468,2.147,0,0,0,0,0,0,2.1358,2.1358,2.1384,2.1384,2.1353,2.1352,2.1351,2.1359,2.1354,2.1351,2.134,2.1336,2.1344,2.1345,2.1347,2.1406,2.1344,2.1346,2.1347,2.1466,2.1469,2.1471,0,0,0,0,0,0,2.1358,2.1361,2.1385,2.137,2.1372,2.1355,2.1365,2.136,2.1365,2.1352,2.1349,2.1349,2.1342,2.1345,2.1377,2.1406,2.1347,2.1349,2.1464,2.1467,2.147,2.1525,0,0,0,0,0,0,2.1357,2.1361,2.138,2.1371,2.1373,2.1413,2.1366,2.1362,2.1368,2.1363,2.1359,2.1357,2.1341,2.1374,2.1379,2.1408,2.135,2.1461,2.1465,2.1469,2.1521,2.153,2.1538,0,0,0,0,0,2.1356,2.1397,2.1381,2.1385,2.1396,2.1415,2.1417,2.1396,2.1371,2.139,2.1381,2.1357,2.1402,2.1378,2.1383,2.1413,2.1459,2.1464,2.1468,2.1517,2.1528,2.1538,0,0,0,0,0,0,2.1412,2.1395,2.1378,2.1417,2.1418,2.1407,2.143,2.1409,2.1418,2.1413,2.1388,2.1388,2.1424,2.1421,2.1395,2.1461,2.1426,2.1432,2.1462,2.1472,2.148,2.148,2.1352,0,0,0,0,0,2.1428,2.1444,2.1429,2.1466,2.1467,2.1448,2.1456,2.144,2.144,2.1441,2.1434,2.1437,2.1451,2.1462,2.1474,2.152,2.1519,2.1543,2.1551,2.1558,2.1564,2.1587,2.1597,2.1486,2.1486,2.1486,0,0,2.1464,2.1457,2.1468,2.1477,2.1475,2.1493,2.1449,2.147,2.1483,2.1444,2.1474,2.1469,2.147,2.1509,2.1526,2.1509,2.1594,2.1564,2.157,2.1572,2.1593,2.1603,2.1613,2.1489,2.1489,2.1488,0,0,2.1537,2.1533,2.1562,2.1561,2.1558,2.1546,2.1553,2.1545,2.154,2.1568,2.1539,2.1555,2.1581,2.1582,2.1586,2.1658,2.1636,2.1663,2.1707,2.173,2.1739,2.1747,2.1772,2.1781,2.1668,2.1669,2.1669,0,2.1581,2.1605,2.158,2.1602,2.1607,2.157,2.16,2.1601,2.1603,2.1608,2.1587,2.1617,2.1616,2.1654,2.1671,2.1676,2.1683,2.1664,2.174,2.1747,2.1754,2.1778,2.1787,2.1672,2.1671,2.1671,2.1671,0,2.166,2.1677,2.1701,2.1702,2.1709,2.1735,2.1715,2.1725,2.1708,2.1698,2.1727,2.1724,2.1734,2.1742,2.1727,2.1778,2.1767,2.1744,2.1708,2.1768,2.179,2.1799,2.1677,2.1675,2.1674,2.1674,0,0,2.1769,2.1754,2.1764,2.1763,2.1757,2.177,2.1795,2.1803,2.1813,2.1816,2.1835,2.1857,2.1834,2.1839,2.1823,2.1844,2.19,2.1817,2.1817,2.1833,2.1956,2.1974,2.1984,2.1885,2.1886,2.1888,2.1956,0,2.1839,2.1878,2.1855,2.1898,2.1913,2.1878,2.19,2.1899,2.189,2.1902,2.1892,2.1908,2.1877,2.188,2.1898,2.1889,2.1924,2.1884,2.1904,2.1905,2.1904,2.1996,2.2015,2.2079,2.1964,2.1966,2.1967,0,2.1926,2.193,2.1974,2.1963,2.1969,2.1988,2.1994,2.2006,2.2004,2.1996,2.2,2.1979,2.2003,2.1967,2.1999,2.1972,2.1979,2.1976,2.1978,2.1979,2.194,2.2,2.2099,2.2109,2.198,2.1979,2.1978,0,2.2,2.2017,2.2045,2.2046,2.2035,2.2049,2.2045,2.2041,2.2048,2.2053,2.2057,2.2066,2.207,2.2078,2.206,2.2035,2.2095,2.2057,2.2089,2.209,2.2103,2.2103,2.2206,2.2108,2.2108,2.2108,2.2108,0,2.208,2.2108,2.2078,2.2095,2.2126,2.21,2.2131,2.2124,2.2121,2.2136,2.2107,2.2123,2.2098,2.2112,2.2098,2.2126,2.2129,2.2124,2.212,2.2126,2.2127,2.213,2.2125,2.211,2.211,2.2109,2.2109,0,2.2169,2.2149,2.2177,2.2164,2.2161,2.2184,2.2173,2.2189,2.2177,2.2198,2.2201,2.2183,2.2197,2.218,2.2193,2.2184,2.2222,2.2212,2.2222,2.2219,2.2252,2.2249,2.236,2.2374,2.2268,2.2269,2.227,0,2.2221,2.2241,2.2229,2.2237,2.2234,2.2248,2.2253,2.2229,2.2236,2.2235,2.2251,2.2262,2.227,2.2294,2.2283,2.2293,2.2282,2.2321,2.2284,2.2289,2.2282,2.2281,2.2283,2.2328,2.233,2.2331,2.2331,0,2.2316,2.2305,2.2313,2.2318,2.2325,2.2328,2.2329,2.2338,2.2312,2.2322,2.2335,2.2341,2.2353,2.2365,2.2371,2.2368,2.2346,2.2343,2.2351,2.2358,2.2363,2.236,2.2243,2.2341,2.234,2.2339,2.2339,2.2338,2.2387,2.2403,2.2397,2.2407,2.2405,2.2406,2.242,2.2409,2.2419,2.2426,2.2412,2.2428,2.2426,2.2431,2.2431,2.2444,2.2428,2.2439,2.2442,2.2445,2.245,2.236,2.2446,2.2445,2.2445,2.2445,2.2445,0,2.248,2.2473,2.2483,2.2484,2.2493,2.2469,2.2469,2.2478,2.2492,2.2491,2.2498,2.2513,2.2524,2.2513,2.2522,2.2535,2.2525,2.2538,2.2537,2.2536,2.2464,2.2457,2.2546,2.2546,2.2546,2.2546,2.2546,2.2546,2.2529,2.2554,2.2543,2.2567,2.2561,2.2576,2.2578,2.2579,2.2577,2.2595,2.2603,2.2595,2.259,2.2598,2.2607,2.2604,2.2608,2.2625,2.2618,2.2551,2.2542,2.2532,2.2524,2.2626,2.2627,2.2689,2.2689,2.269]},{"header":{"parameterUnit":"m.s-1","parameterCategory":1,"la1":30.2991,"la2":30.254,"lo1":-89.0895,"lo2":-89.0444,"dx":0.0017,"dy":0.0017,"nx":28,"ny":28,"refTime":"2023-01-02T15:00:00:Z","depth":0,"parameterNumber":3,"parameterNumberName":"V-component_of_WINDS"},"data":[0,0,0,0,0,0,0,0,0,0,0,0,0,0,0,0,0,0,0,0,0,0,0,0,0,0,0,0,0,0,0,0,0,0,0,0,0,0,0,0,0,0,0,0,0,0,0,0,0,0,0,0,0,0,0,0,0,0,5.4862,5.4863,0,5.4966,5.4967,5.4968,5.4941,5.4939,5.4937,5.4935,5.5043,5.5047,5.5052,0,0,0,0,0,0,0,0,0,0,0,0,0,5.464,5.4644,5.4862,5.4863,5.4864,5.4966,5.4967,5.4969,5.4942,5.4939,5.4937,5.4934,5.5041,5.5047,5.5053,0,0,0,0,0,0,0,0,0,0,0,0,0,5.4739,5.4645,5.4861,5.4863,5.4864,5.4966,5.4967,5.4969,5.4942,5.4939,5.4936,5.4933,5.5039,5.5046,5.5053,5.516,0,0,5.5075,5.5078,0,0,0,0,0,0,0,0,5.4734,5.4747,5.4861,5.4863,5.4865,5.4937,5.4928,5.5033,5.4943,5.4913,5.4935,5.4932,5.501,5.502,5.5046,5.5165,5.5169,5.5076,5.508,5.5083,5.5085,0,0,0,0,0,0,0,5.4727,5.4743,5.4903,5.4863,5.4865,5.4859,5.4869,5.4948,5.4978,5.4915,5.4913,5.4926,5.5011,5.5039,5.5048,5.5171,5.5076,5.5082,5.5087,5.5089,5.5384,5.5387,0,0,0,0,0,0,5.4719,5.4737,5.49,5.4906,5.479,5.4865,5.4877,5.4917,5.4977,5.4983,5.4929,5.4924,5.5028,5.504,5.5052,5.5182,5.5083,5.509,5.5094,5.538,5.5385,5.5388,0,0,0,0,0,0,5.4714,5.4733,5.4895,5.4821,5.4841,5.4872,5.4917,5.4921,5.495,5.4987,5.4992,5.4952,5.5026,5.5042,5.5133,5.5186,5.5093,5.51,5.5376,5.5382,5.5387,5.5443,0,0,0,0,0,0,5.4708,5.4732,5.4772,5.4822,5.4845,5.4975,5.4921,5.4925,5.4962,5.4957,5.5011,5.5016,5.5025,5.5123,5.5141,5.5194,5.5105,5.5372,5.5379,5.5385,5.5436,5.5449,5.546,0,0,0,0,0,5.47,5.4784,5.4775,5.4794,5.4897,5.4978,5.4991,5.5,5.4966,5.5008,5.5032,5.5015,5.5176,5.5133,5.5152,5.5208,5.5369,5.5377,5.5384,5.5431,5.5447,5.546,0,0,0,0,0,0,5.4739,5.479,5.4781,5.4883,5.4926,5.4973,5.5026,5.5015,5.5069,5.5063,5.5071,5.5083,5.5177,5.5201,5.5152,5.5315,5.5268,5.528,5.5296,5.5312,5.5323,5.5317,5.5111,0,0,0,0,0,5.4759,5.4821,5.4862,5.4949,5.4971,5.4995,5.503,5.5033,5.5078,5.5096,5.5127,5.5172,5.5233,5.5273,5.5331,5.5439,5.5451,5.5487,5.5499,5.5508,5.552,5.5581,5.5598,5.5414,5.5414,5.5414,0,0,5.4802,5.4838,5.4876,5.4957,5.4991,5.5056,5.501,5.508,5.5128,5.5107,5.5196,5.522,5.5271,5.5371,5.5417,5.5394,5.5573,5.5519,5.5526,5.5532,5.5591,5.5608,5.5623,5.542,5.5419,5.5418,0,0,5.4914,5.4946,5.5023,5.5058,5.511,5.5125,5.5144,5.5192,5.5208,5.5297,5.5283,5.534,5.5445,5.5482,5.5515,5.5641,5.5629,5.566,5.5723,5.5782,5.5797,5.581,5.5857,5.5874,5.567,5.567,5.567,0,5.4961,5.5057,5.5063,5.5135,5.5172,5.5156,5.5234,5.5267,5.5336,5.5362,5.5335,5.5467,5.55,5.561,5.5641,5.5667,5.5689,5.5655,5.5794,5.5807,5.5819,5.5865,5.5882,5.5674,5.5674,5.5673,5.5673,0,5.5114,5.5181,5.5236,5.5304,5.5346,5.5421,5.5439,5.5481,5.548,5.5498,5.559,5.5629,5.5695,5.5721,5.572,5.5832,5.5816,5.5792,5.5745,5.584,5.5883,5.59,5.5679,5.5678,5.5677,5.5676,0,0,5.5254,5.5324,5.5345,5.5376,5.5432,5.5485,5.5558,5.5624,5.5661,5.5708,5.5772,5.586,5.5839,5.5876,5.5879,5.593,5.6031,5.59,5.5901,5.5925,5.6159,5.6179,5.6199,5.6022,5.6025,5.6028,5.6156,0,5.5373,5.5504,5.5512,5.5631,5.5694,5.5679,5.5744,5.5786,5.5805,5.5861,5.5882,5.5946,5.5911,5.5933,5.5983,5.6008,5.6078,5.5998,5.6083,5.6086,5.6073,5.6221,5.6242,5.6361,5.6172,5.6175,5.6177,0,5.5529,5.5582,5.5708,5.5757,5.5784,5.5842,5.5903,5.5957,5.6004,5.6015,5.6056,5.6052,5.6129,5.6077,5.6184,5.613,5.6164,5.6181,5.6186,5.6197,5.6139,5.6238,5.6399,5.6418,5.6203,5.6201,5.6199,0,5.5622,5.5725,5.5814,5.5841,5.5899,5.5941,5.5967,5.6012,5.6051,5.6104,5.613,5.6191,5.6225,5.6273,5.6286,5.6247,5.6393,5.6342,5.6406,5.6406,5.6439,5.6438,5.6611,5.6457,5.6457,5.6456,5.6456,0,5.5755,5.5833,5.5857,5.5912,5.5999,5.6007,5.6094,5.6117,5.6157,5.6217,5.6207,5.6263,5.6276,5.6335,5.6345,5.6433,5.6448,5.6459,5.6462,5.6462,5.6461,5.6487,5.648,5.6461,5.646,5.6459,5.6458,0,5.5875,5.5893,5.599,5.6038,5.6052,5.6115,5.6156,5.6209,5.6226,5.6303,5.6321,5.6349,5.6418,5.6435,5.6517,5.6524,5.6629,5.6622,5.6613,5.6614,5.6677,5.6672,5.6876,5.6904,5.6729,5.673,5.6732,0,5.596,5.602,5.6075,5.6115,5.6143,5.6207,5.6247,5.6257,5.63,5.6359,5.6406,5.6473,5.6529,5.664,5.6668,5.6731,5.6727,5.6794,5.6736,5.6735,5.6731,5.6729,5.6736,5.6806,5.6807,5.6809,5.681,0,5.611,5.6117,5.6175,5.6238,5.6287,5.6336,5.6383,5.6416,5.6433,5.6481,5.6552,5.6595,5.6679,5.6748,5.6811,5.6839,5.6829,5.6828,5.6846,5.6849,5.6842,5.6849,5.6646,5.6824,5.6822,5.6821,5.6821,5.682,5.6217,5.627,5.6318,5.6384,5.6421,5.6466,5.6519,5.6544,5.6603,5.6673,5.6675,5.6753,5.6799,5.6884,5.6915,5.6976,5.6956,5.6982,5.6989,5.6997,5.7004,5.683,5.6988,5.6987,5.6987,5.6987,5.6986,0,5.6369,5.6399,5.646,5.6527,5.6579,5.6564,5.6616,5.6661,5.673,5.6774,5.6829,5.6911,5.6978,5.7011,5.7077,5.712,5.7117,5.7137,5.7135,5.7142,5.7016,5.6995,5.7138,5.7138,5.7138,5.7138,5.7138,5.7138,5.6454,5.6545,5.6557,5.6666,5.6696,5.6772,5.6804,5.6845,5.6881,5.6974,5.7029,5.705,5.7091,5.716,5.722,5.7228,5.7254,5.7278,5.7284,5.7166,5.7151,5.7136,5.7116,5.7283,5.7283,5.7405,5.7406,5.7407]}]]